Regional Weather Roundup
Issued by NWS

Home | Current Version | Previous Version | Graphics & Text | Print | Product List | Glossary On
Versions: 1 2 3 4 5 6 7 8 9 10 11 12 13 14 15 16 17 18 19 20 21 22 23 24 25 26 27 28 29 30 31 32 33 34 35 36 37 38 39 40 41 42 43 44 45 46 47 48 49 50
000
ASUS45 KCYS 291810
RWRWY

WYOMING REGIONAL WEATHER ROUNDUP
NATIONAL WEATHER SERVICE CHEYENNE WY
1200 PM MDT WED MAR 29 2017

NOTE:  "FAIR" INDICATES FEW OR NO CLOUDS BELOW 12,000 FEET
WITH NO SIGNIFICANT WEATHER AND/OR OBSTRUCTIONS TO VISIBILITY.

WYZ001-291900-
YELLOWSTONE NATIONAL PARK

CITY           SKY/WX    TMP DP  RH WIND       PRES   REMARKS
LK YELLOWSTONE   N/A     36  21  54 VRB5      30.17S WCI  32
6HR MIN TEMP:  24; 6HR MAX TEMP:  36;

W YELLOWSTONE  NOT AVBL

$$
WYZ002>013-054>058-071-098>099-291900-
NORTHERN WYOMING

CITY           SKY/WX    TMP DP  RH WIND       PRES   REMARKS
JACKSON        MOSUNNY   36  25  64 S6        30.19F WCI  31
CODY           FAIR      53  23  31 W13G24    30.06F
GREYBULL       FAIR      52  30  43 SE10      30.07F
6HR MIN TEMP:  31; 6HR MAX TEMP:  52;

WORLAND        FAIR      51  35  54 CALM      30.08F
6HR MIN TEMP:  29; 6HR MAX TEMP:  51;

SHERIDAN       FAIR      56  33  42 VRB3      30.06F
6HR MIN TEMP:  27; 6HR MAX TEMP:  56;

BUFFALO        FAIR      55  23  28 E7        30.06F
6HR MIN TEMP:  34; 6HR MAX TEMP:  55;

GILLETTE       FAIR      54  26  34 W9        30.05F
6HR MIN TEMP:  29; 6HR MAX TEMP:  55;

HULETT         FAIR      50  32  50 SW6       30.08F
NEWCASTLE      FAIR      48  36  61 NW6       30.09F

$$
WYZ014>020-022>026-101>103-291900-
CENTRAL WYOMING

CITY           SKY/WX    TMP DP  RH WIND       PRES   REMARKS
BIG PINEY      FAIR      42  19  39 CALM      30.19F
6HR MIN TEMP:  21; 6HR MAX TEMP:  44;

PINEDALE       FAIR      41  23  48 NW12G18   30.19F
DUBOIS         FAIR      41  19  42 N14       30.10F
LANDER         FAIR      49  28  44 SE7G18    30.09F
6HR MIN TEMP:  28; 6HR MAX TEMP:  50;

RIVERTON       FAIR      45  31  58 VRB3      30.11F
6HR MIN TEMP:  29; 6HR MAX TEMP:  45;

CASPER         FAIR      50  32  50 SW9G18    30.10F
6HR MIN TEMP:  28; 6HR MAX TEMP:  51;

DOUGLAS        FAIR      53  30  41 NW16      30.08F
6HR MIN TEMP:  32; 6HR MAX TEMP:  53;


$$
WYZ021-027>030-104>119-291900-
SOUTHERN WYOMING

CITY           SKY/WX    TMP DP  RH WIND       PRES   REMARKS
EVANSTON       FAIR      41  22  46 W8        30.23F
6HR MIN TEMP:  24; 6HR MAX TEMP:  42;

KEMMERER         N/A     36  27  69 W9G16     30.22F WCI  29
ROCK SPRINGS   FAIR      39  26  59 W13       30.19F WCI  31
6HR MIN TEMP:  27; 6HR MAX TEMP:  39;

DIXON            N/A     44  30  58 W7        30.21S
RAWLINS        FAIR      40  30  67 W14       30.16F WCI  32
6HR MIN TEMP:  23; 6HR MAX TEMP:  40;

SARATOGA       MOCLDY    41  28  60 NW6       30.16F
LARAMIE        PTSUNNY   41  29  62 W10       30.11F
6HR MIN TEMP:  30; 6HR MAX TEMP:  42;

CHEYENNE       PTSUNNY   45  29  53 N14G23    30.08F
6HR MIN TEMP:  35; 6HR MAX TEMP:  46; 6HR PCP: TRACE;

TORRINGTON     FAIR      52  36  54 N9        30.07F
6HR MIN TEMP:  38; 6HR MAX TEMP:  52;

PINE BLUFFS    MOCLDY    45  36  70 N7G17     30.08F

$$



USA.gov is the U.S. government's official web portal to all federal, state and local government web resources and services.